Location: Rounton
(54.4000°N, 1.3500°W)
Time: 09:18:33
(UTC+01:00)

A-11 Canister half - Pass Details

Date: 29 June 2022
Orbit: 1525 x 1683 km, 47.3° (Epoch: 16 August)

Event Time Altitude Azimuth Distance (km) Brightness Sun altitude
Rises 23:07:45 0° 277° (W) 4,713 12.1 -8.2°
Reaches altitude 10° 23:11:00 10° 272° (W) 3,716 11.4 -8.4°
Maximum altitude 23:19:34 43° 205° (SSW) 2,033 9.4 -8.9°
Drops below altitude 10° 23:28:06 10° 138° (SE) 3,695 10.4 -9.4°
Enters shadow 23:28:34 - 137° (SE) 3,832 10.5 -9.5°
